owner,sensor,date,latitude,longitude,sea_water_turbidity,qcFlag 
SCCF RECON,ioos:station:SCCF:16:1,2008-09-01T00:00:00Z,26.4345,-81.9647,28.11,1111122 
SCCF RECON,ioos:station:SCCF:16:1,2008-09-01T01:00:00Z,26.4345,-81.9647,27.99,1111122 
SCCF RECON,ioos:station:SCCF:16:1,2008-09-01T02:00:00Z,26.4345,-81.9647,19.05,1111122 
SCCF RECON,ioos:station:SCCF:16:1,2008-09-01T03:00:00Z,26.4345,-81.9647,17.61,1111122 
SCCF RECON,ioos:station:SCCF:16:1,2008-09-01T04:00:00Z,26.4345,-81.9647,13.66,1111122 
SCCF RECON,ioos:station:SCCF:16:1,2008-09-01T05:00:00Z,26.4345,-81.9647,10.37,1111122 
SCCF RECON,ioos:station:SCCF:16:1,2008-09-01T06:00:00Z,26.4345,-81.9647,9.87,1111122 
SCCF RECON,ioos:station:SCCF:16:1,2008-09-01T07:00:00Z,26.4345,-81.9647,9.79,1111122 
SCCF RECON,ioos:station:SCCF:16:1,2008-09-01T08:00:00Z,26.4345,-81.9647,10.22,1111122 
SCCF RECON,ioos:station:SCCF:16:1,2008-09-01T09:00:00Z,26.4345,-81.9647,19.25,1111122 
SCCF RECON,ioos:station:SCCF:16:1,2008-09-01T10:00:00Z,26.4345,-81.9647,27.13,1111122 
SCCF RECON,ioos:station:SCCF:16:1,2008-09-01T11:00:00Z,26.4345,-81.9647,18.03,1111122 
SCCF RECON,ioos:station:SCCF:16:1,2008-09-01T12:00:00Z,26.4345,-81.9647,12.3,1111122 
SCCF RECON,ioos:station:SCCF:16:1,2008-09-01T13:00:00Z,26.4345,-81.9647,10.87,1111122 
SCCF RECON,ioos:station:SCCF:16:1,2008-09-01T14:00:00Z,26.4345,-81.9647,7.07,1111122 
SCCF RECON,ioos:station:SCCF:16:1,2008-09-01T15:00:00Z,26.4345,-81.9647,8.46,1111122 
SCCF RECON,ioos:station:SCCF:16:1,2008-09-01T16:00:00Z,26.4345,-81.9647,8.24,1111122 
SCCF RECON,ioos:station:SCCF:16:1,2008-09-01T17:00:00Z,26.4345,-81.9647,9.98,1111122 
SCCF RECON,ioos:station:SCCF:16:1,2008-09-01T18:00:00Z,26.4345,-81.9647,10.82,1111122 
SCCF RECON,ioos:station:SCCF:16:1,2008-09-01T19:00:00Z,26.4345,-81.9647,9.97,1111122 
SCCF RECON,ioos:station:SCCF:16:1,2008-09-01T20:00:00Z,26.4345,-81.9647,9.19,1111122 
SCCF RECON,ioos:station:SCCF:16:1,2008-09-01T21:00:00Z,26.4345,-81.9647,8.95,1111122 
SCCF RECON,ioos:station:SCCF:16:1,2008-09-01T22:00:00Z,26.4345,-81.9647,7.4,1111122 
SCCF RECON,ioos:station:SCCF:16:1,2008-09-01T23:00:00Z,26.4345,-81.9647,9.28,1111122 
SCCF RECON,ioos:station:SCCF:16:1,2008-09-02T00:00:00Z,26.4345,-81.9647,17.43,1111122 
SCCF RECON,ioos:station:SCCF:16:1,2008-09-02T01:00:00Z,26.4345,-81.9647,13.24,1111122 
SCCF RECON,ioos:station:SCCF:16:1,2008-09-02T02:00:00Z,26.4345,-81.9647,8.97,1111122 
SCCF RECON,ioos:station:SCCF:16:1,2008-09-02T03:00:00Z,26.4345,-81.9647,8.13,1111122 
SCCF RECON,ioos:station:SCCF:16:1,2008-09-02T04:00:00Z,26.4345,-81.9647,8.83,1111122 
SCCF RECON,ioos:station:SCCF:16:1,2008-09-02T05:00:00Z,26.4345,-81.9647,8.98,1111122 
SCCF RECON,ioos:station:SCCF:16:1,2008-09-02T06:00:00Z,26.4345,-81.9647,8.99,1111122 
SCCF RECON,ioos:station:SCCF:16:1,2008-09-02T07:00:00Z,26.4345,-81.9647,13.07,1111122 
SCCF RECON,ioos:station:SCCF:16:1,2008-09-02T08:00:00Z,26.4345,-81.9647,8.96,1111122 
SCCF RECON,ioos:station:SCCF:16:1,2008-09-02T09:00:00Z,26.4345,-81.9647,18.02,1111122 
SCCF RECON,ioos:station:SCCF:16:1,2008-09-02T10:00:00Z,26.4345,-81.9647,13.32,1111122 
SCCF RECON,ioos:station:SCCF:16:1,2008-09-02T11:00:00Z,26.4345,-81.9647,10.53,1111122 
SCCF RECON,ioos:station:SCCF:16:1,2008-09-02T12:00:00Z,26.4345,-81.9647,11.0,1111122 
SCCF RECON,ioos:station:SCCF:16:1,2008-09-02T13:00:00Z,26.4345,-81.9647,11.35,1111122 
SCCF RECON,ioos:station:SCCF:16:1,2008-09-02T14:00:00Z,26.4345,-81.9647,10.86,1111122 
SCCF RECON,ioos:station:SCCF:16:1,2008-09-02T15:00:00Z,26.4345,-81.9647,9.86,1111122 
SCCF RECON,ioos:station:SCCF:16:1,2008-09-02T16:00:00Z,26.4345,-81.9647,13.06,1111122 
SCCF RECON,ioos:station:SCCF:16:1,2008-09-02T17:00:00Z,26.4345,-81.9647,8.48,1111122 
SCCF RECON,ioos:station:SCCF:16:1,2008-09-02T18:00:00Z,26.4345,-81.9647,7.53,1111122 
SCCF RECON,ioos:station:SCCF:16:1,2008-09-02T19:00:00Z,26.4345,-81.9647,6.95,1111122 
SCCF RECON,ioos:station:SCCF:16:1,2008-09-02T20:00:00Z,26.4345,-81.9647,6.0,1111122 
SCCF RECON,ioos:station:SCCF:16:1,2008-09-02T21:00:00Z,26.4345,-81.9647,6.77,1111122 
SCCF RECON,ioos:station:SCCF:16:1,2008-09-02T22:00:00Z,26.4345,-81.9647,6.74,1111122 
SCCF RECON,ioos:station:SCCF:16:1,2008-09-02T23:00:00Z,26.4345,-81.9647,6.58,1111122 
SCCF RECON,ioos:station:SCCF:16:1,2008-09-03T00:00:00Z,26.4345,-81.9647,9.32,1111122 
SCCF RECON,ioos:station:SCCF:16:1,2008-09-03T01:00:00Z,26.4345,-81.9647,6.65,1111122 
SCCF RECON,ioos:station:SCCF:16:1,2008-09-03T02:00:00Z,26.4345,-81.9647,7.42,1111122 
SCCF RECON,ioos:station:SCCF:16:1,2008-09-03T03:00:00Z,26.4345,-81.9647,6.36,1111122 
SCCF RECON,ioos:station:SCCF:16:1,2008-09-03T04:00:00Z,26.4345,-81.9647,6.5,1111122 
SCCF RECON,ioos:station:SCCF:16:1,2008-09-03T05:00:00Z,26.4345,-81.9647,14.01,1111122 
SCCF RECON,ioos:station:SCCF:16:1,2008-09-03T06:00:00Z,26.4345,-81.9647,7.17,1111122 
SCCF RECON,ioos:station:SCCF:16:1,2008-09-03T07:00:00Z,26.4345,-81.9647,9.14,1111122 
SCCF RECON,ioos:station:SCCF:16:1,2008-09-03T08:00:00Z,26.4345,-81.9647,10.81,1111122 
SCCF RECON,ioos:station:SCCF:16:1,2008-09-03T09:00:00Z,26.4345,-81.9647,6.69,1111122 
SCCF RECON,ioos:station:SCCF:16:1,2008-09-03T10:00:00Z,26.4345,-81.9647,6.29,1111122 
SCCF RECON,ioos:station:SCCF:16:1,2008-09-03T11:00:00Z,26.4345,-81.9647,7.15,1111122 
SCCF RECON,ioos:station:SCCF:16:1,2008-09-03T12:00:00Z,26.4345,-81.9647,8.15,1111122 
SCCF RECON,ioos:station:SCCF:16:1,2008-09-03T13:00:00Z,26.4345,-81.9647,10.9,1111122 
SCCF RECON,ioos:station:SCCF:16:1,2008-09-03T14:00:00Z,26.4345,-81.9647,7.76,1111122 
SCCF RECON,ioos:station:SCCF:16:1,2008-09-03T15:00:00Z,26.4345,-81.9647,6.8,1111122 
SCCF RECON,ioos:station:SCCF:16:1,2008-09-03T16:00:00Z,26.4345,-81.9647,16.64,1111122 
SCCF RECON,ioos:station:SCCF:16:1,2008-09-03T17:00:00Z,26.4345,-81.9647,6.92,1111122 
SCCF RECON,ioos:station:SCCF:16:1,2008-09-03T18:00:00Z,26.4345,-81.9647,7.08,1111122 
SCCF RECON,ioos:station:SCCF:16:1,2008-09-03T19:00:00Z,26.4345,-81.9647,7.34,1111122 
SCCF RECON,ioos:station:SCCF:16:1,2008-09-03T20:00:00Z,26.4345,-81.9647,11.09,1111122 
SCCF RECON,ioos:station:SCCF:16:1,2008-09-03T21:00:00Z,26.4345,-81.9647,5.34,1111122 
SCCF RECON,ioos:station:SCCF:16:1,2008-09-03T22:00:00Z,26.4345,-81.9647,5.04,1111122 
SCCF RECON,ioos:station:SCCF:16:1,2008-09-03T23:00:00Z,26.4345,-81.9647,4.49,1111122 
SCCF RECON,ioos:station:SCCF:16:1,2008-09-04T00:00:00Z,26.4345,-81.9647,5.76,1111122 
SCCF RECON,ioos:station:SCCF:16:1,2008-09-04T01:00:00Z,26.4345,-81.9647,5.35,1111122 
SCCF RECON,ioos:station:SCCF:16:1,2008-09-04T02:00:00Z,26.4345,-81.9647,3.98,1111122 
SCCF RECON,ioos:station:SCCF:16:1,2008-09-04T03:00:00Z,26.4345,-81.9647,3.67,1111122 
SCCF RECON,ioos:station:SCCF:16:1,2008-09-04T04:00:00Z,26.4345,-81.9647,4.22,1111122 
SCCF RECON,ioos:station:SCCF:16:1,2008-09-04T05:00:00Z,26.4345,-81.9647,4.45,1111122 
SCCF RECON,ioos:station:SCCF:16:1,2008-09-04T06:00:00Z,26.4345,-81.9647,4.99,1111122 
SCCF RECON,ioos:station:SCCF:16:1,2008-09-04T07:00:00Z,26.4345,-81.9647,4.46,1111122 
SCCF RECON,ioos:station:SCCF:16:1,2008-09-04T08:00:00Z,26.4345,-81.9647,5.13,1111122 
SCCF RECON,ioos:station:SCCF:16:1,2008-09-04T09:00:00Z,26.4345,-81.9647,4.96,1111122 
SCCF RECON,ioos:station:SCCF:16:1,2008-09-04T10:00:00Z,26.4345,-81.9647,5.84,1111122 
SCCF RECON,ioos:station:SCCF:16:1,2008-09-04T11:00:00Z,26.4345,-81.9647,4.29,1111122 
SCCF RECON,ioos:station:SCCF:16:1,2008-09-04T12:00:00Z,26.4345,-81.9647,6.2,1111122 
SCCF RECON,ioos:station:SCCF:16:1,2008-09-04T13:00:00Z,26.4345,-81.9647,7.62,1111122 
SCCF RECON,ioos:station:SCCF:16:1,2008-09-04T14:00:00Z,26.4345,-81.9647,7.66,1111122 
SCCF RECON,ioos:station:SCCF:16:1,2008-09-04T15:00:00Z,26.4345,-81.9647,7.05,1111122 
SCCF RECON,ioos:station:SCCF:16:1,2008-09-04T16:00:00Z,26.4345,-81.9647,5.8,1111122 
SCCF RECON,ioos:station:SCCF:16:1,2008-09-04T17:00:00Z,26.4345,-81.9647,6.28,1111122 
SCCF RECON,ioos:station:SCCF:16:1,2008-09-04T18:00:00Z,26.4345,-81.9647,5.69,1111122 
SCCF RECON,ioos:station:SCCF:16:1,2008-09-04T19:00:00Z,26.4345,-81.9647,4.7,1111122 
SCCF RECON,ioos:station:SCCF:16:1,2008-09-04T20:00:00Z,26.4345,-81.9647,4.53,1111122 
SCCF RECON,ioos:station:SCCF:16:1,2008-09-04T21:00:00Z,26.4345,-81.9647,15.4,1111122 
SCCF RECON,ioos:station:SCCF:16:1,2008-09-04T22:00:00Z,26.4345,-81.9647,4.84,1111122 
SCCF RECON,ioos:station:SCCF:16:1,2008-09-04T23:00:00Z,26.4345,-81.9647,5.02,1111122 
SCCF RECON,ioos:station:SCCF:16:1,2008-09-05T00:00:00Z,26.4345,-81.9647,13.77,1111122 
SCCF RECON,ioos:station:SCCF:16:1,2008-09-05T01:00:00Z,26.4345,-81.9647,5.4,1111122 
SCCF RECON,ioos:station:SCCF:16:1,2008-09-05T02:00:00Z,26.4345,-81.9647,5.01,1111122 
SCCF RECON,ioos:station:SCCF:16:1,2008-09-05T03:00:00Z,26.4345,-81.9647,4.73,1111122 
SCCF RECON,ioos:station:SCCF:16:1,2008-09-05T04:00:00Z,26.4345,-81.9647,4.68,1111122 
SCCF RECON,ioos:station:SCCF:16:1,2008-09-05T05:00:00Z,26.4345,-81.9647,4.86,1111122 
SCCF RECON,ioos:station:SCCF:16:1,2008-09-05T06:00:00Z,26.4345,-81.9647,5.23,1111122 
SCCF RECON,ioos:station:SCCF:16:1,2008-09-05T07:00:00Z,26.4345,-81.9647,7.09,1111122 
SCCF RECON,ioos:station:SCCF:16:1,2008-09-05T08:00:00Z,26.4345,-81.9647,7.48,1111122 
SCCF RECON,ioos:station:SCCF:16:1,2008-09-05T09:00:00Z,26.4345,-81.9647,5.53,1111122 
SCCF RECON,ioos:station:SCCF:16:1,2008-09-05T10:00:00Z,26.4345,-81.9647,5.52,1111122 
SCCF RECON,ioos:station:SCCF:16:1,2008-09-05T11:00:00Z,26.4345,-81.9647,4.09,1111122 
SCCF RECON,ioos:station:SCCF:16:1,2008-09-05T12:00:00Z,26.4345,-81.9647,4.36,1111122 
SCCF RECON,ioos:station:SCCF:16:1,2008-09-05T13:00:00Z,26.4345,-81.9647,4.43,1111122 
SCCF RECON,ioos:station:SCCF:16:1,2008-09-05T14:00:00Z,26.4345,-81.9647,5.03,1111122 
SCCF RECON,ioos:station:SCCF:16:1,2008-09-05T15:00:00Z,26.4345,-81.9647,6.25,1111122 
SCCF RECON,ioos:station:SCCF:16:1,2008-09-05T16:00:00Z,26.4345,-81.9647,6.34,1111122 
SCCF RECON,ioos:station:SCCF:16:1,2008-09-05T17:00:00Z,26.4345,-81.9647,5.79,1111122 
SCCF RECON,ioos:station:SCCF:16:1,2008-09-05T18:00:00Z,26.4345,-81.9647,5.11,1111122 
SCCF RECON,ioos:station:SCCF:16:1,2008-09-05T19:00:00Z,26.4345,-81.9647,5.25,1111122 
SCCF RECON,ioos:station:SCCF:16:1,2008-09-05T20:00:00Z,26.4345,-81.9647,6.62,1111122 
SCCF RECON,ioos:station:SCCF:16:1,2008-09-05T21:00:00Z,26.4345,-81.9647,7.25,1111122 
SCCF RECON,ioos:station:SCCF:16:1,2008-09-05T22:00:00Z,26.4345,-81.9647,6.39,1111122 
SCCF RECON,ioos:station:SCCF:16:1,2008-09-05T23:00:00Z,26.4345,-81.9647,5.27,1111122 
SCCF RECON,ioos:station:SCCF:16:1,2008-09-06T00:00:00Z,26.4345,-81.9647,5.71,1111122 
SCCF RECON,ioos:station:SCCF:16:1,2008-09-06T01:00:00Z,26.4345,-81.9647,6.07,1111122 
SCCF RECON,ioos:station:SCCF:16:1,2008-09-06T02:00:00Z,26.4345,-81.9647,5.77,1111122 
SCCF RECON,ioos:station:SCCF:16:1,2008-09-06T03:00:00Z,26.4345,-81.9647,5.16,1111122 
SCCF RECON,ioos:station:SCCF:16:1,2008-09-06T04:00:00Z,26.4345,-81.9647,4.92,1111122 
SCCF RECON,ioos:station:SCCF:16:1,2008-09-06T05:00:00Z,26.4345,-81.9647,5.66,1111122 
SCCF RECON,ioos:station:SCCF:16:1,2008-09-06T06:00:00Z,26.4345,-81.9647,5.62,1111122 
SCCF RECON,ioos:station:SCCF:16:1,2008-09-06T07:00:00Z,26.4345,-81.9647,6.93,1111122 
SCCF RECON,ioos:station:SCCF:16:1,2008-09-06T08:00:00Z,26.4345,-81.9647,10.24,1111122 
SCCF RECON,ioos:station:SCCF:16:1,2008-09-06T09:00:00Z,26.4345,-81.9647,8.7,1111122 
SCCF RECON,ioos:station:SCCF:16:1,2008-09-06T10:00:00Z,26.4345,-81.9647,6.21,1111122 
SCCF RECON,ioos:station:SCCF:16:1,2008-09-06T11:00:00Z,26.4345,-81.9647,4.39,1111122 
SCCF RECON,ioos:station:SCCF:16:1,2008-09-06T12:00:00Z,26.4345,-81.9647,4.14,1111122 
SCCF RECON,ioos:station:SCCF:16:1,2008-09-06T13:00:00Z,26.4345,-81.9647,4.96,1111122 
SCCF RECON,ioos:station:SCCF:16:1,2008-09-06T14:00:00Z,26.4345,-81.9647,4.9,1111122 
SCCF RECON,ioos:station:SCCF:16:1,2008-09-06T15:00:00Z,26.4345,-81.9647,4.39,1111122 
SCCF RECON,ioos:station:SCCF:16:1,2008-09-06T16:00:00Z,26.4345,-81.9647,4.87,1111122 
SCCF RECON,ioos:station:SCCF:16:1,2008-09-06T17:00:00Z,26.4345,-81.9647,5.13,1111122 
SCCF RECON,ioos:station:SCCF:16:1,2008-09-06T18:00:00Z,26.4345,-81.9647,5.03,1111122 
SCCF RECON,ioos:station:SCCF:16:1,2008-09-06T19:00:00Z,26.4345,-81.9647,4.77,1111122 
SCCF RECON,ioos:station:SCCF:16:1,2008-09-06T20:00:00Z,26.4345,-81.9647,4.93,1111122 
SCCF RECON,ioos:station:SCCF:16:1,2008-09-06T21:00:00Z,26.4345,-81.9647,6.26,1111122 
SCCF RECON,ioos:station:SCCF:16:1,2008-09-06T22:00:00Z,26.4345,-81.9647,14.21,1111122 
SCCF RECON,ioos:station:SCCF:16:1,2008-09-06T23:00:00Z,26.4345,-81.9647,18.98,1111122 
SCCF RECON,ioos:station:SCCF:16:1,2008-09-07T00:00:00Z,26.4345,-81.9647,5.37,1111122 
SCCF RECON,ioos:station:SCCF:16:1,2008-09-07T01:00:00Z,26.4345,-81.9647,6.59,1111122 
SCCF RECON,ioos:station:SCCF:16:1,2008-09-07T02:00:00Z,26.4345,-81.9647,25.47,1111122 
SCCF RECON,ioos:station:SCCF:16:1,2008-09-07T03:00:00Z,26.4345,-81.9647,22.21,1111122 
SCCF RECON,ioos:station:SCCF:16:1,2008-09-07T04:00:00Z,26.4345,-81.9647,27.09,1111122 
SCCF RECON,ioos:station:SCCF:16:1,2008-09-07T05:00:00Z,26.4345,-81.9647,4.55,1111122 
SCCF RECON,ioos:station:SCCF:16:1,2008-09-07T06:00:00Z,26.4345,-81.9647,4.22,1111122 
SCCF RECON,ioos:station:SCCF:16:1,2008-09-07T07:00:00Z,26.4345,-81.9647,4.68,1111122 
SCCF RECON,ioos:station:SCCF:16:1,2008-09-07T08:00:00Z,26.4345,-81.9647,5.76,1111122 
SCCF RECON,ioos:station:SCCF:16:1,2008-09-07T09:00:00Z,26.4345,-81.9647,6.12,1111122 
SCCF RECON,ioos:station:SCCF:16:1,2008-09-07T10:00:00Z,26.4345,-81.9647,5.55,1111122 
SCCF RECON,ioos:station:SCCF:16:1,2008-09-07T11:00:00Z,26.4345,-81.9647,5.4,1111122 
SCCF RECON,ioos:station:SCCF:16:1,2008-09-07T12:00:00Z,26.4345,-81.9647,27.92,1111122 
SCCF RECON,ioos:station:SCCF:16:1,2008-09-07T13:00:00Z,26.4345,-81.9647,4.93,1111122 
SCCF RECON,ioos:station:SCCF:16:1,2008-09-07T14:00:00Z,26.4345,-81.9647,4.86,1111122 
SCCF RECON,ioos:station:SCCF:16:1,2008-09-07T15:00:00Z,26.4345,-81.9647,4.66,1111122 
SCCF RECON,ioos:station:SCCF:16:1,2008-09-07T16:00:00Z,26.4345,-81.9647,6.38,1111122 
SCCF RECON,ioos:station:SCCF:16:1,2008-09-07T17:00:00Z,26.4345,-81.9647,4.58,1111122 
SCCF RECON,ioos:station:SCCF:16:1,2008-09-07T18:00:00Z,26.4345,-81.9647,4.54,1111122 
SCCF RECON,ioos:station:SCCF:16:1,2008-09-07T19:00:00Z,26.4345,-81.9647,4.98,1111122 
SCCF RECON,ioos:station:SCCF:16:1,2008-09-07T20:00:00Z,26.4345,-81.9647,6.46,1111122 
SCCF RECON,ioos:station:SCCF:16:1,2008-09-07T21:00:00Z,26.4345,-81.9647,4.79,1111122 
SCCF RECON,ioos:station:SCCF:16:1,2008-09-07T22:00:00Z,26.4345,-81.9647,16.05,1111122 
SCCF RECON,ioos:station:SCCF:16:1,2008-09-07T23:00:00Z,26.4345,-81.9647,19.22,1111122 
SCCF RECON,ioos:station:SCCF:16:1,2008-09-08T00:00:00Z,26.4345,-81.9647,11.07,1111122 
SCCF RECON,ioos:station:SCCF:16:1,2008-09-08T01:00:00Z,26.4345,-81.9647,9.66,1111122 
SCCF RECON,ioos:station:SCCF:16:1,2008-09-08T02:00:00Z,26.4345,-81.9647,5.23,1111122 
SCCF RECON,ioos:station:SCCF:16:1,2008-09-08T03:00:00Z,26.4345,-81.9647,4.42,1111122 
SCCF RECON,ioos:station:SCCF:16:1,2008-09-08T04:00:00Z,26.4345,-81.9647,4.78,1111122 
SCCF RECON,ioos:station:SCCF:16:1,2008-09-08T05:00:00Z,26.4345,-81.9647,4.9,1111122 
SCCF RECON,ioos:station:SCCF:16:1,2008-09-08T06:00:00Z,26.4345,-81.9647,4.71,1111122 
SCCF RECON,ioos:station:SCCF:16:1,2008-09-08T07:00:00Z,26.4345,-81.9647,10.04,1111122 
SCCF RECON,ioos:station:SCCF:16:1,2008-09-08T08:00:00Z,26.4345,-81.9647,5.09,1111122 
SCCF RECON,ioos:station:SCCF:16:1,2008-09-08T09:00:00Z,26.4345,-81.9647,7.07,1111122 
SCCF RECON,ioos:station:SCCF:16:1,2008-09-08T10:00:00Z,26.4345,-81.9647,10.79,1111122 
SCCF RECON,ioos:station:SCCF:16:1,2008-09-08T11:00:00Z,26.4345,-81.9647,3.37,1111122 
SCCF RECON,ioos:station:SCCF:16:1,2008-09-08T12:00:00Z,26.4345,-81.9647,6.58,1111122 
SCCF RECON,ioos:station:SCCF:16:1,2008-09-08T13:00:00Z,26.4345,-81.9647,3.24,1111122 
SCCF RECON,ioos:station:SCCF:16:1,2008-09-08T14:00:00Z,26.4345,-81.9647,6.69,1111122 
SCCF RECON,ioos:station:SCCF:16:1,2008-09-08T15:00:00Z,26.4345,-81.9647,3.6,1111122 
SCCF RECON,ioos:station:SCCF:16:1,2008-09-08T16:00:00Z,26.4345,-81.9647,5.28,1111122 
SCCF RECON,ioos:station:SCCF:16:1,2008-09-08T17:00:00Z,26.4345,-81.9647,6.04,1111122 
SCCF RECON,ioos:station:SCCF:16:1,2008-09-08T18:00:00Z,26.4345,-81.9647,8.22,1111122 
SCCF RECON,ioos:station:SCCF:16:1,2008-09-08T19:00:00Z,26.4345,-81.9647,11.53,1111122 
SCCF RECON,ioos:station:SCCF:16:1,2008-09-08T20:00:00Z,26.4345,-81.9647,10.58,1111122 
SCCF RECON,ioos:station:SCCF:16:1,2008-09-08T21:00:00Z,26.4345,-81.9647,6.52,1111122 
SCCF RECON,ioos:station:SCCF:16:1,2008-09-08T22:00:00Z,26.4345,-81.9647,21.09,1111122 
SCCF RECON,ioos:station:SCCF:16:1,2008-09-08T23:00:00Z,26.4345,-81.9647,20.23,1111122 
SCCF RECON,ioos:station:SCCF:16:1,2008-09-09T00:00:00Z,26.4345,-81.9647,10.5,1111122 
SCCF RECON,ioos:station:SCCF:16:1,2008-09-09T01:00:00Z,26.4345,-81.9647,15.32,1111122 
SCCF RECON,ioos:station:SCCF:16:1,2008-09-09T02:00:00Z,26.4345,-81.9647,12.57,1111122 
SCCF RECON,ioos:station:SCCF:16:1,2008-09-09T03:00:00Z,26.4345,-81.9647,13.23,1111122 
SCCF RECON,ioos:station:SCCF:16:1,2008-09-09T04:00:00Z,26.4345,-81.9647,15.35,1111122 
SCCF RECON,ioos:station:SCCF:16:1,2008-09-09T05:00:00Z,26.4345,-81.9647,11.94,1111122 
SCCF RECON,ioos:station:SCCF:16:1,2008-09-09T06:00:00Z,26.4345,-81.9647,13.14,1111122 
SCCF RECON,ioos:station:SCCF:16:1,2008-09-09T07:00:00Z,26.4345,-81.9647,15.25,1111122 
SCCF RECON,ioos:station:SCCF:16:1,2008-09-09T08:00:00Z,26.4345,-81.9647,14.93,1111122 
SCCF RECON,ioos:station:SCCF:16:1,2008-09-09T09:00:00Z,26.4345,-81.9647,7.4,1111122 
SCCF RECON,ioos:station:SCCF:16:1,2008-09-09T10:00:00Z,26.4345,-81.9647,10.23,1111122 
SCCF RECON,ioos:station:SCCF:16:1,2008-09-09T11:00:00Z,26.4345,-81.9647,6.1,1111122 
SCCF RECON,ioos:station:SCCF:16:1,2008-09-09T12:00:00Z,26.4345,-81.9647,6.87,1111122 
SCCF RECON,ioos:station:SCCF:16:1,2008-09-09T13:00:00Z,26.4345,-81.9647,6.11,1111122 
SCCF RECON,ioos:station:SCCF:16:1,2008-09-09T14:00:00Z,26.4345,-81.9647,9.0,1111122 
SCCF RECON,ioos:station:SCCF:16:1,2008-09-09T15:00:00Z,26.4345,-81.9647,5.84,1111122 
SCCF RECON,ioos:station:SCCF:16:1,2008-09-09T16:00:00Z,26.4345,-81.9647,8.93,1111122 
SCCF RECON,ioos:station:SCCF:16:1,2008-09-09T17:00:00Z,26.4345,-81.9647,10.1,1111122 
SCCF RECON,ioos:station:SCCF:16:1,2008-09-09T18:00:00Z,26.4345,-81.9647,12.47,1111122 
SCCF RECON,ioos:station:SCCF:16:1,2008-09-09T19:00:00Z,26.4345,-81.9647,15.35,1111122 
SCCF RECON,ioos:station:SCCF:16:1,2008-09-09T20:00:00Z,26.4345,-81.9647,23.16,1111122 
SCCF RECON,ioos:station:SCCF:16:1,2008-09-09T21:00:00Z,26.4345,-81.9647,14.54,1111122 
SCCF RECON,ioos:station:SCCF:16:1,2008-09-09T22:00:00Z,26.4345,-81.9647,21.53,1111122 
SCCF RECON,ioos:station:SCCF:16:1,2008-09-09T23:00:00Z,26.4345,-81.9647,23.52,1111122 
SCCF RECON,ioos:station:SCCF:16:1,2008-09-10T00:00:00Z,26.4345,-81.9647,22.05,1111122 
SCCF RECON,ioos:station:SCCF:16:1,2008-09-10T01:00:00Z,26.4345,-81.9647,26.76,1111122 
SCCF RECON,ioos:station:SCCF:16:1,2008-09-10T02:00:00Z,26.4345,-81.9647,19.73,1111122 
SCCF RECON,ioos:station:SCCF:16:1,2008-09-10T03:00:00Z,26.4345,-81.9647,15.1,1111122 
SCCF RECON,ioos:station:SCCF:16:1,2008-09-10T04:00:00Z,26.4345,-81.9647,14.33,1111122 
SCCF RECON,ioos:station:SCCF:16:1,2008-09-10T05:00:00Z,26.4345,-81.9647,14.74,1111122 
SCCF RECON,ioos:station:SCCF:16:1,2008-09-10T06:00:00Z,26.4345,-81.9647,14.86,1111122 
SCCF RECON,ioos:station:SCCF:16:1,2008-09-10T07:00:00Z,26.4345,-81.9647,16.44,1111122 
SCCF RECON,ioos:station:SCCF:16:1,2008-09-10T08:00:00Z,26.4345,-81.9647,17.28,1111122 
SCCF RECON,ioos:station:SCCF:16:1,2008-09-10T09:00:00Z,26.4345,-81.9647,19.27,1111122 
SCCF RECON,ioos:station:SCCF:16:1,2008-09-10T10:00:00Z,26.4345,-81.9647,22.85,1111122 
SCCF RECON,ioos:station:SCCF:16:1,2008-09-10T11:00:00Z,26.4345,-81.9647,23.33,1111122 
SCCF RECON,ioos:station:SCCF:16:1,2008-09-10T12:00:00Z,26.4345,-81.9647,27.6,1111122 
SCCF RECON,ioos:station:SCCF:16:1,2008-09-10T13:00:00Z,26.4345,-81.9647,23.55,1111122 
SCCF RECON,ioos:station:SCCF:16:1,2008-09-10T14:00:00Z,26.4345,-81.9647,26.56,1111122 
SCCF RECON,ioos:station:SCCF:16:1,2008-09-10T15:00:00Z,26.4345,-81.9647,16.36,1111122 
SCCF RECON,ioos:station:SCCF:16:1,2008-09-10T16:00:00Z,26.4345,-81.9647,19.09,1111122 
SCCF RECON,ioos:station:SCCF:16:1,2008-09-10T17:00:00Z,26.4345,-81.9647,15.71,1111122 
SCCF RECON,ioos:station:SCCF:16:1,2008-09-10T18:00:00Z,26.4345,-81.9647,21.59,1111122 
SCCF RECON,ioos:station:SCCF:16:1,2008-09-10T19:00:00Z,26.4345,-81.9647,15.4,1111122 
SCCF RECON,ioos:station:SCCF:16:1,2008-09-10T20:00:00Z,26.4345,-81.9647,22.1,1111122 
SCCF RECON,ioos:station:SCCF:16:1,2008-09-10T21:00:00Z,26.4345,-81.9647,24.92,1111122 
SCCF RECON,ioos:station:SCCF:16:1,2008-09-10T22:00:00Z,26.4345,-81.9647,19.35,1111122 
SCCF RECON,ioos:station:SCCF:16:1,2008-09-10T23:00:00Z,26.4345,-81.9647,16.86,1111122 
SCCF RECON,ioos:station:SCCF:16:1,2008-09-11T00:00:00Z,26.4345,-81.9647,15.38,1111122 
SCCF RECON,ioos:station:SCCF:16:1,2008-09-11T01:00:00Z,26.4345,-81.9647,17.12,1111122 
SCCF RECON,ioos:station:SCCF:16:1,2008-09-11T02:00:00Z,26.4345,-81.9647,17.47,1111122 
SCCF RECON,ioos:station:SCCF:16:1,2008-09-11T03:00:00Z,26.4345,-81.9647,19.28,1111122 
SCCF RECON,ioos:station:SCCF:16:1,2008-09-11T04:00:00Z,26.4345,-81.9647,28.06,1111122 
SCCF RECON,ioos:station:SCCF:16:1,2008-09-11T05:00:00Z,26.4345,-81.9647,25.2,1111122 
SCCF RECON,ioos:station:SCCF:16:1,2008-09-11T06:00:00Z,26.4345,-81.9647,23.28,1111122 
SCCF RECON,ioos:station:SCCF:16:1,2008-09-11T07:00:00Z,26.4345,-81.9647,24.27,1111122 
SCCF RECON,ioos:station:SCCF:16:1,2008-09-11T08:00:00Z,26.4345,-81.9647,28.02,1111122 
SCCF RECON,ioos:station:SCCF:16:1,2008-09-11T09:00:00Z,26.4345,-81.9647,28.11,1111122 
SCCF RECON,ioos:station:SCCF:16:1,2008-09-11T10:00:00Z,26.4345,-81.9647,26.88,1111122 
SCCF RECON,ioos:station:SCCF:16:1,2008-09-11T11:00:00Z,26.4345,-81.9647,24.39,1111122 
SCCF RECON,ioos:station:SCCF:16:1,2008-09-11T12:00:00Z,26.4345,-81.9647,24.89,1111122 
SCCF RECON,ioos:station:SCCF:16:1,2008-09-11T13:00:00Z,26.4345,-81.9647,25.71,1111122 
SCCF RECON,ioos:station:SCCF:16:1,2008-09-11T14:00:00Z,26.4345,-81.9647,26.93,1111122 
SCCF RECON,ioos:station:SCCF:16:1,2008-09-11T15:00:00Z,26.4345,-81.9647,27.23,1111122 
SCCF RECON,ioos:station:SCCF:16:1,2008-09-11T16:00:00Z,26.4345,-81.9647,28.11,1111122 
SCCF RECON,ioos:station:SCCF:16:1,2008-09-11T17:00:00Z,26.4345,-81.9647,21.51,1111122 
SCCF RECON,ioos:station:SCCF:16:1,2008-09-11T18:00:00Z,26.4345,-81.9647,25.82,1111122 
SCCF RECON,ioos:station:SCCF:16:1,2008-09-11T19:00:00Z,26.4345,-81.9647,28.11,1111122 
SCCF RECON,ioos:station:SCCF:16:1,2008-09-11T20:00:00Z,26.4345,-81.9647,28.11,1111122 
SCCF RECON,ioos:station:SCCF:16:1,2008-09-11T21:00:00Z,26.4345,-81.9647,25.5,1111122 
SCCF RECON,ioos:station:SCCF:16:1,2008-09-11T22:00:00Z,26.4345,-81.9647,20.44,1111122 
SCCF RECON,ioos:station:SCCF:16:1,2008-09-11T23:00:00Z,26.4345,-81.9647,15.37,1111122 
SCCF RECON,ioos:station:SCCF:16:1,2008-09-12T00:00:00Z,26.4345,-81.9647,12.9,1111122 
SCCF RECON,ioos:station:SCCF:16:1,2008-09-12T01:00:00Z,26.4345,-81.9647,15.03,1111122 
SCCF RECON,ioos:station:SCCF:16:1,2008-09-12T02:00:00Z,26.4345,-81.9647,10.26,1111122 
SCCF RECON,ioos:station:SCCF:16:1,2008-09-12T03:00:00Z,26.4345,-81.9647,11.77,1111122 
SCCF RECON,ioos:station:SCCF:16:1,2008-09-12T04:00:00Z,26.4345,-81.9647,21.04,1111122 
SCCF RECON,ioos:station:SCCF:16:1,2008-09-12T05:00:00Z,26.4345,-81.9647,23.79,1111122 
SCCF RECON,ioos:station:SCCF:16:1,2008-09-12T06:00:00Z,26.4345,-81.9647,23.36,1111122 
SCCF RECON,ioos:station:SCCF:16:1,2008-09-12T07:00:00Z,26.4345,-81.9647,25.92,1111122 
SCCF RECON,ioos:station:SCCF:16:1,2008-09-12T08:00:00Z,26.4345,-81.9647,17.97,1111122 
SCCF RECON,ioos:station:SCCF:16:1,2008-09-12T09:00:00Z,26.4345,-81.9647,17.03,1111122 
SCCF RECON,ioos:station:SCCF:16:1,2008-09-12T10:00:00Z,26.4345,-81.9647,14.38,1111122 
SCCF RECON,ioos:station:SCCF:16:1,2008-09-12T11:00:00Z,26.4345,-81.9647,14.25,1111122 
SCCF RECON,ioos:station:SCCF:16:1,2008-09-12T12:00:00Z,26.4345,-81.9647,21.72,1111122 